N9WFD Weather Reports


Display with metric or nautical units.
time (UTC)temp
F
wind
direction
speed
MPH
gust
MPH
rain 1hr
in
rain 24hr
in
rain mn
in
humidity
%
barometer
mb
20260902023036 83 320 2.0 7.0 0.00 0.00 0.00 79 1012.2
20260902021531 83 319 1.0 5.0 0.00 0.00 0.00 79 1012.2
20260902020021 83 314 2.0 3.0 0.00 0.00 0.00 79 1012.1
20260902014520 84 318 1.0 4.0 0.00 0.00 0.00 78 1012.0
20260902013018 84 324 0.0 4.0 0.00 0.00 0.00 78 1011.9
20260902011517 85 317 0.0 4.0 0.00 0.00 0.00 77 1011.6
20260902010016 86 319 1.0 3.0 0.00 0.00 0.00 75 1011.3
20260902004518 86 319 1.0 2.0 0.00 0.00 0.00 74 1011.3
20260902003012 87 319 1.0 3.0 0.00 0.00 0.00 73 1011.2
20260902001511 88 327 1.0 4.0 0.00 0.00 0.00 72 1011.2
20260902000012 88 339 3.0 5.0 0.00 0.00 0.00 71 1011.2
20260901234509 89 325 3.0 6.0 0.00 0.00 0.00 70 1011.3
20260901233005 90 319 3.0 7.0 0.00 0.00 0.00 70 1011.3
20260901231505 90 333 4.0 7.0 0.00 0.00 0.00 70 1011.5
20260901230004 90 17 3.0 9.0 0.00 0.00 0.00 69 1011.4
20260901224505 91 320 3.0 10.0 0.00 0.00 0.00 69 1011.5
20260901223004 91 339 3.0 9.0 0.00 0.00 0.00 68 1011.5
20260901221502 91 352 3.0 9.0 0.00 0.00 0.00 67 1011.6
20260901220053 92 314 4.0 9.0 0.00 0.00 0.00 67 1011.4
20260901214528 91 350 2.0 7.0 0.00 0.00 0.00 69 1011.4
20260901213056 91 25 2.0 6.0 0.00 0.00 0.00 66 1011.5
20260901211522 92 329 2.0 7.0 0.00 0.00 0.00 64 1011.5
20260901210020 92 12 4.0 9.0 0.00 0.00 0.00 62 1011.7
20260901204521 92 359 5.0 10.0 0.00 0.00 0.00 62 1011.8
20260901203058 92 353 2.0 9.0 0.00 0.00 0.00 62 1011.8
20260901201544 92 33 4.0 8.0 0.00 0.00 0.00 61 1011.9
20260901200044 92 27 3.0 8.0 0.00 0.00 0.00 61 1012.0
20260901194543 92 351 3.0 8.0 0.00 0.00 0.00 60 1012.1
20260901193049 92 30 4.0 10.0 0.00 0.00 0.00 62 1012.3
20260901191538 91 348 3.0 11.0 0.00 0.00 0.00 64 1012.2
20260901190029 91 308 5.0 8.0 0.00 0.00 0.00 65 1012.2
20260901184531 90 287 3.0 8.0 0.00 0.00 0.00 67 1012.3
20260901183036 89 316 3.0 8.0 0.00 0.00 0.00 68 1012.4
20260901181522 88 358 5.0 10.0 0.00 0.00 0.00 73 1012.5
20260901180017 87 335 4.0 10.0 0.00 0.00 0.00 73 1012.5
20260901174512 87 17 4.0 8.0 0.00 0.00 0.00 77 1012.8
20260901173008 86 331 2.0 7.0 0.00 0.00 0.00 78 1012.9
20260901171506 85 327 4.0 7.0 0.00 0.00 0.00 79 1013.0
20260901170002 84 345 2.0 6.0 0.00 0.00 0.00 83 1013.1
20260901164611 83 323 2.0 6.0 0.00 0.00 0.00 85 1013.3
20260901163058 83 35 1.0 4.0 0.00 0.00 0.00 83 1013.5
20260901161556 83 49 3.0 9.0 0.00 0.00 0.00 82 1013.6
20260901160056 82 27 2.0 6.0 0.00 0.00 0.00 83 1013.4
20260901154550 82 312 2.0 5.0 0.00 0.00 0.00 84 1013.3
20260901153046 81 349 1.0 3.0 0.00 0.00 0.00 85 1013.4
20260901151544 81 328 2.0 5.0 0.00 0.00 0.00 85 1013.2
20260901150041 81 312 1.0 3.0 0.00 0.00 0.00 86 1013.2
20260901144537 80 311 1.0 4.0 0.00 0.00 0.00 86 1013.2
20260901143043 80 300 0.0 5.0 0.00 0.00 0.00 86 1013.0
20260901141537 80 321 1.0 6.0 0.00 0.00 0.00 86 1013.1
20260901140044 79 297 1.0 5.0 0.00 0.00 0.00 87 1013.0
20260901134529 78 326 3.0 6.0 0.00 0.00 0.00 88 1013.1
20260901133028 77 335 4.0 6.0 0.00 0.00 0.00 89 1013.2
20260901131532 76 314 2.0 5.0 0.00 0.00 0.00 89 1013.2
20260901130035 76 310 2.0 4.0 0.00 0.00 0.00 88 1013.2
20260901124553 75 334 0.0 3.0 0.00 0.00 0.00 87 1013.2
20260901123051 74 309 0.0 0.0 0.00 0.00 0.00 87 1013.1
20260901121548 74 310 1.0 3.0 0.00 0.00 0.00 86 1013.0
20260901120054 74 309 1.0 4.0 0.00 0.00 0.00 86 1012.9
20260901114550 73 313 0.0 0.0 0.00 0.00 0.00 86 1012.7
20260901113049 73 313 0.0 0.0 0.00 0.00 0.00 86 1012.7
20260901111517 73 313 0.0 0.0 0.00 0.00 0.00 86 1012.5
20260901110016 73 313 0.0 0.0 0.00 0.00 0.00 86 1012.3
20260901104514 73 313 1.0 3.0 0.00 0.00 0.00 86 1012.2
20260901103018 73 313 1.0 2.0 0.00 0.00 0.00 86 1012.2
20260901101513 73 313 0.0 3.0 0.00 0.00 0.00 86 1012.1
20260901100013 73 313 0.0 1.0 0.00 0.00 0.00 87 1012.1
20260901094544 73 313 0.0 1.0 0.00 0.00 0.00 86 1012.2
20260901093041 73 313 0.0 1.0 0.00 0.00 0.00 87 1012.2
20260901091541 73 313 0.0 1.0 0.00 0.00 0.00 88 1012.1
20260901090038 74 313 0.0 1.0 0.00 0.00 0.00 88 1012.0
20260901084540 74 313 0.0 1.0 0.00 0.00 0.00 88 1012.1
20260901083038 74 313 0.0 2.0 0.00 0.00 0.00 88 1012.0
20260901081509 74 313 0.0 2.0 0.00 0.00 0.00 88 1011.8
20260901080006 74 312 0.0 2.0 0.00 0.00 0.00 88 1011.8
20260901074537 74 312 2.0 4.0 0.00 0.00 0.00 88 1011.8
20260901073037 74 312 0.0 0.0 0.00 0.00 0.00 89 1011.8
20260901071518 74 312 0.0 0.0 0.00 0.00 0.00 90 1011.8
20260901070017 74 312 0.0 0.0 0.00 0.00 0.00 89 1011.8
20260901064503 74 312 0.0 0.0 0.00 0.00 0.00 89 1011.8
20260901063003 75 312 0.0 0.0 0.00 0.00 0.00 89 1011.8
20260901061502 76 312 0.0 0.0 0.00 0.00 0.00 88 1011.8
20260901060001 76 312 0.0 0.0 0.00 0.00 0.00 88 1011.9
20260901054532 76 312 0.0 0.0 0.00 0.00 0.00 88 1011.8
20260901053049 77 312 0.0 2.0 0.00 0.00 0.00 87 1011.7
20260901051529 77 312 0.0 2.0 0.00 0.00 0.00 87 1011.7
20260901050027 77 312 0.0 3.0 0.00 0.00 0.00 87 1011.9
20260901044526 77 312 0.0 2.0 0.00 0.00 0.00 87 1011.9
20260901043028 77 312 0.0 2.0 0.00 0.00 0.00 88 1011.9
20260901041525 77 312 1.0 3.0 0.00 0.00 0.00 88 1011.9
20260901040021 78 312 0.0 2.0 0.00 0.00 0.00 88 1011.9
20260901034525 78 310 0.0 2.0 0.00 0.00 0.00 87 1012.0
20260901033023 78 310 0.0 2.0 0.00 0.00 0.00 87 1012.1
20260901031523 78 310 1.0 2.0 0.00 0.00 0.00 88 1012.1
20260901030049 78 310 2.0 3.0 0.00 0.00 0.00 88 1012.1
20260901024553 78 310 0.0 1.0 0.00 0.00 0.00 87 1012.2